Time,TemperatureF,DewpointF,PressureIn,WindDirection,WindDirectionDegrees,WindSpeedMPH,WindSpeedGustMPH,Humidity,HourlyPrecipIn,Conditions,Clouds,dailyrainin,SoftwareType,DateUTC
2016-07-28 00:03:00,77.7,69.9,29.94,NW,310,0.0,0.0,77,0.00,,,0.00,WeatherCatV2.22B31,2016-07-28 04:03:00,
2016-07-28 00:08:00,77.7,70.7,29.94,NW,310,0.0,0.0,79,0.00,,,0.00,WeatherCatV2.22B31,2016-07-28 04:08:00,
2016-07-28 00:13:00,77.7,70.7,29.94,NW,310,0.0,0.0,79,0.00,,,0.00,WeatherCatV2.22B31,2016-07-28 04:13:00,
2016-07-28 00:18:00,77.7,70.7,29.93,NW,310,0.0,0.0,79,0.00,,,0.00,WeatherCatV2.22B31,2016-07-28 04:18:00,
2016-07-28 00:23:00,77.7,71.0,29.93,NW,310,0.0,0.0,80,0.00,,,0.00,WeatherCatV2.22B31,2016-07-28 04:23:00,
2016-07-28 00:28:00,77.6,70.6,29.93,NW,310,0.0,0.0,79,0.00,,,0.00,WeatherCatV2.22B31,2016-07-28 04:28:00,
2016-07-28 00:33:00,77.6,70.9,29.93,NW,310,0.0,0.0,80,0.00,,,0.00,WeatherCatV2.22B31,2016-07-28 04:33:00,
2016-07-28 00:38:00,77.4,70.4,29.93,NW,310,0.0,0.0,79,0.00,,,0.00,WeatherCatV2.22B31,2016-07-28 04:38:00,
2016-07-28 00:43:00,77.2,70.2,29.93,NW,310,0.0,0.0,79,0.00,,,0.00,WeatherCatV2.22B31,2016-07-28 04:43:00,
2016-07-28 00:48:00,77.2,70.5,29.93,NW,310,0.0,0.0,80,0.00,,,0.00,WeatherCatV2.22B31,2016-07-28 04:48:00,
2016-07-28 00:53:00,77.2,70.5,29.93,NW,310,0.0,0.0,80,0.00,,,0.00,WeatherCatV2.22B31,2016-07-28 04:53:00,
2016-07-28 00:58:00,77.2,70.5,29.93,NW,310,0.0,0.0,80,0.00,,,0.00,WeatherCatV2.22B31,2016-07-28 04:58:00,
2016-07-28 01:03:00,77.2,70.5,29.93,NW,310,0.0,0.0,80,0.00,,,0.00,WeatherCatV2.22B31,2016-07-28 05:03:00,
2016-07-28 01:08:00,77.0,70.3,29.93,NW,310,0.0,0.0,80,0.00,,,0.00,WeatherCatV2.22B31,2016-07-28 05:08:00,
2016-07-28 01:13:00,77.0,70.3,29.93,NW,310,0.0,0.0,80,0.00,,,0.00,WeatherCatV2.22B31,2016-07-28 05:13:00,
2016-07-28 01:18:00,77.0,70.3,29.92,NW,310,0.0,0.0,80,0.00,,,0.00,WeatherCatV2.22B31,2016-07-28 05:18:00,
2016-07-28 01:23:00,77.0,70.3,29.92,NW,310,0.0,0.0,80,0.00,,,0.00,WeatherCatV2.22B31,2016-07-28 05:23:00,
2016-07-28 01:28:00,76.8,70.2,29.92,NW,310,0.0,0.0,80,0.00,,,0.00,WeatherCatV2.22B31,2016-07-28 05:28:00,
2016-07-28 01:33:00,76.8,70.2,29.92,NW,310,0.0,0.0,80,0.00,,,0.00,WeatherCatV2.22B31,2016-07-28 05:33:00,
2016-07-28 01:38:00,76.8,70.5,29.92,NW,310,0.0,0.0,81,0.00,,,0.00,WeatherCatV2.22B31,2016-07-28 05:38:00,
2016-07-28 01:43:00,76.8,70.5,29.92,NW,310,0.0,0.0,81,0.00,,,0.00,WeatherCatV2.22B31,2016-07-28 05:43:00,
2016-07-28 01:48:00,76.8,70.5,29.92,NW,310,0.0,0.0,81,0.00,,,0.00,WeatherCatV2.22B31,2016-07-28 05:48:00,
2016-07-28 01:53:00,76.8,70.5,29.92,NW,310,0.0,0.0,81,0.00,,,0.00,WeatherCatV2.22B31,2016-07-28 05:53:00,
2016-07-28 01:58:00,76.7,70.4,29.92,NW,310,0.0,0.0,81,0.00,,,0.00,WeatherCatV2.22B31,2016-07-28 05:58:00,
2016-07-28 02:03:00,76.7,70.4,29.91,NW,310,0.0,0.0,81,0.00,,,0.00,WeatherCatV2.22B31,2016-07-28 06:03:00,
2016-07-28 02:08:00,76.5,70.6,29.91,NW,310,0.0,0.0,82,0.00,,,0.00,WeatherCatV2.22B31,2016-07-28 06:08:00,
2016-07-28 02:13:00,76.5,70.6,29.91,NW,310,0.0,0.0,82,0.00,,,0.00,WeatherCatV2.22B31,2016-07-28 06:13:00,
2016-07-28 02:18:00,76.5,70.6,29.91,NW,310,0.0,0.0,82,0.00,,,0.00,WeatherCatV2.22B31,2016-07-28 06:18:00,
2016-07-28 02:23:00,76.5,70.6,29.91,NW,310,0.0,0.0,82,0.00,,,0.00,WeatherCatV2.22B31,2016-07-28 06:23:00,
2016-07-28 02:28:00,76.5,70.6,29.91,NW,310,0.0,0.0,82,0.00,,,0.00,WeatherCatV2.22B31,2016-07-28 06:28:00,
2016-07-28 02:33:00,76.5,70.6,29.91,NW,310,0.0,0.0,82,0.00,,,0.00,WeatherCatV2.22B31,2016-07-28 06:33:00,
2016-07-28 02:38:00,76.5,70.9,29.91,NW,310,0.0,0.0,83,0.00,,,0.00,WeatherCatV2.22B31,2016-07-28 06:38:00,
2016-07-28 02:43:00,76.5,70.9,29.91,NW,310,0.0,0.0,83,0.00,,,0.00,WeatherCatV2.22B31,2016-07-28 06:43:00,
2016-07-28 02:48:00,76.3,70.7,29.91,NW,310,0.0,0.0,83,0.00,,,0.00,WeatherCatV2.22B31,2016-07-28 06:48:00,
2016-07-28 02:53:00,76.3,71.1,29.91,NW,310,0.0,0.0,84,0.00,,,0.00,WeatherCatV2.22B31,2016-07-28 06:53:00,
2016-07-28 02:58:00,76.3,70.7,29.91,NW,310,0.0,0.0,83,0.00,,,0.00,WeatherCatV2.22B31,2016-07-28 06:58:00,
2016-07-28 03:03:00,76.1,70.6,29.90,NW,310,0.0,0.0,83,0.00,,,0.00,WeatherCatV2.22B31,2016-07-28 07:03:00,
2016-07-28 03:08:00,76.1,70.6,29.90,NW,310,0.0,0.0,83,0.00,,,0.00,WeatherCatV2.22B31,2016-07-28 07:08:00,
2016-07-28 03:13:00,76.0,70.4,29.90,NW,310,0.0,0.0,83,0.00,,,0.00,WeatherCatV2.22B31,2016-07-28 07:13:00,
2016-07-28 03:18:00,76.0,70.4,29.89,NW,310,0.0,0.0,83,0.00,,,0.00,WeatherCatV2.22B31,2016-07-28 07:18:00,
2016-07-28 03:23:00,76.0,70.8,29.89,NW,310,0.0,0.0,84,0.00,,,0.00,WeatherCatV2.22B31,2016-07-28 07:23:00,
2016-07-28 03:28:00,76.0,70.8,29.89,NW,310,0.0,0.0,84,0.00,,,0.00,WeatherCatV2.22B31,2016-07-28 07:28:00,
2016-07-28 03:33:00,76.0,70.8,29.89,NW,310,0.0,0.0,84,0.00,,,0.01,WeatherCatV2.22B31,2016-07-28 07:33:00,
2016-07-28 03:38:00,75.8,71.0,29.89,NW,310,0.0,0.0,85,0.44,,,0.07,WeatherCatV2.22B31,2016-07-28 07:38:00,
2016-07-28 03:43:00,75.3,70.5,29.89,NW,310,0.0,0.0,85,0.96,,,0.12,WeatherCatV2.22B31,2016-07-28 07:43:00,
2016-07-28 03:48:00,74.6,69.8,29.91,NW,310,0.0,0.0,85,0.69,,,0.19,WeatherCatV2.22B31,2016-07-28 07:48:00,
2016-07-28 03:53:00,73.9,69.4,29.91,NW,310,0.0,0.0,86,0.72,,,0.31,WeatherCatV2.22B31,2016-07-28 07:53:00,
2016-07-28 03:58:00,73.5,69.0,29.91,NW,310,0.0,0.0,86,0.31,,,0.35,WeatherCatV2.22B31,2016-07-28 07:58:00,
2016-07-28 04:03:00,73.2,69.1,29.90,NW,310,0.0,0.0,87,0.50,,,0.39,WeatherCatV2.22B31,2016-07-28 08:03:00,
2016-07-28 04:08:00,73.0,69.2,29.90,NW,310,0.0,0.0,88,0.94,,,0.54,WeatherCatV2.22B31,2016-07-28 08:08:00,
2016-07-28 04:13:00,73.0,69.2,29.90,NW,310,0.0,0.0,88,2.74,,,0.68,WeatherCatV2.22B31,2016-07-28 08:13:00,
2016-07-28 04:18:00,72.8,69.0,29.89,NW,310,0.0,0.0,88,0.21,,,0.73,WeatherCatV2.22B31,2016-07-28 08:18:00,
2016-07-28 04:23:00,72.7,69.3,29.89,NW,310,0.0,0.0,89,0.42,,,0.77,WeatherCatV2.22B31,2016-07-28 08:23:00,
2016-07-28 04:28:00,72.7,69.3,29.89,NW,310,0.0,0.0,89,0.10,,,0.77,WeatherCatV2.22B31,2016-07-28 08:28:00,
2016-07-28 04:33:00,72.7,69.3,29.88,NW,310,0.0,0.0,89,0.05,,,0.77,WeatherCatV2.22B31,2016-07-28 08:33:00,
2016-07-28 04:38:00,72.5,69.1,29.88,NW,310,0.0,0.0,89,0.04,,,0.78,WeatherCatV2.22B31,2016-07-28 08:38:00,
2016-07-28 04:43:00,72.5,69.1,29.88,NW,310,0.0,0.0,89,0.04,,,0.78,WeatherCatV2.22B31,2016-07-28 08:43:00,
2016-07-28 04:48:00,72.3,69.2,29.89,NW,310,0.0,0.0,90,0.04,,,0.78,WeatherCatV2.22B31,2016-07-28 08:48:00,
2016-07-28 04:53:00,72.3,69.2,29.89,NW,310,0.0,0.0,90,0.04,,,0.78,WeatherCatV2.22B31,2016-07-28 08:53:00,
2016-07-28 04:58:00,72.3,69.2,29.89,NW,310,0.0,0.0,90,0.00,,,0.78,WeatherCatV2.22B31,2016-07-28 08:58:00,
2016-07-28 05:03:00,72.3,69.2,29.90,NW,310,0.0,0.0,90,0.00,,,0.78,WeatherCatV2.22B31,2016-07-28 09:03:00,
2016-07-28 05:08:00,72.1,69.0,29.90,NW,310,0.0,0.0,90,0.00,,,0.78,WeatherCatV2.22B31,2016-07-28 09:08:00,
2016-07-28 05:13:00,72.3,69.2,29.90,NW,310,0.0,0.0,90,0.00,,,0.78,WeatherCatV2.22B31,2016-07-28 09:13:00,
2016-07-28 05:18:00,72.5,69.7,29.89,NW,310,0.0,0.0,91,0.00,,,0.78,WeatherCatV2.22B31,2016-07-28 09:18:00,
2016-07-28 05:23:00,72.5,69.7,29.89,NW,310,0.0,0.0,91,0.28,,,0.80,WeatherCatV2.22B31,2016-07-28 09:23:00,
2016-07-28 05:28:00,72.5,69.7,29.89,NW,310,0.0,0.0,91,0.52,,,0.85,WeatherCatV2.22B31,2016-07-28 09:28:00,
2016-07-28 05:33:00,72.3,69.5,29.88,NW,310,0.0,0.0,91,0.22,,,0.87,WeatherCatV2.22B31,2016-07-28 09:33:00,
2016-07-28 05:38:00,72.1,69.3,29.88,NW,310,0.0,0.0,91,0.35,,,0.89,WeatherCatV2.22B31,2016-07-28 09:38:00,
2016-07-28 05:43:00,72.1,69.3,29.88,NW,310,0.0,0.0,91,0.17,,,0.91,WeatherCatV2.22B31,2016-07-28 09:43:00,
2016-07-28 05:48:00,72.0,69.2,29.90,NW,310,0.0,0.0,91,0.61,,,0.95,WeatherCatV2.22B31,2016-07-28 09:48:00,
2016-07-28 05:53:00,71.8,69.0,29.90,NW,310,0.0,0.0,91,0.69,,,1.05,WeatherCatV2.22B31,2016-07-28 09:53:00,
2016-07-28 05:58:00,71.8,69.0,29.90,NW,310,0.0,0.0,91,1.22,,,1.16,WeatherCatV2.22B31,2016-07-28 09:58:00,
2016-07-28 06:03:00,71.6,68.8,29.91,NW,310,0.0,0.0,91,0.86,,,1.23,WeatherCatV2.22B31,2016-07-28 10:03:00,
2016-07-28 06:08:00,71.5,68.7,29.91,NW,310,0.0,0.0,91,2.13,,,1.36,WeatherCatV2.22B31,2016-07-28 10:08:00,
2016-07-28 06:14:00,71.5,68.7,29.91,NW,310,0.0,0.0,91,1.13,,,1.46,WeatherCatV2.22B31,2016-07-28 10:14:00,
2016-07-28 06:18:00,71.3,68.5,29.92,NW,310,0.0,0.0,91,2.29,,,1.58,WeatherCatV2.22B31,2016-07-28 10:18:00,
2016-07-28 06:24:00,70.9,68.1,29.92,NW,310,0.0,0.0,91,1.13,,,1.78,WeatherCatV2.22B31,2016-07-28 10:24:00,
2016-07-28 06:29:00,70.8,68.0,29.92,NW,310,0.0,0.0,91,0.59,,,1.85,WeatherCatV2.22B31,2016-07-28 10:29:00,
2016-07-28 06:34:00,70.8,68.0,29.92,NW,310,0.0,0.0,91,0.77,,,1.96,WeatherCatV2.22B31,2016-07-28 10:34:00,
2016-07-28 06:39:00,70.8,68.0,29.92,NW,310,0.0,0.0,91,0.67,,,2.01,WeatherCatV2.22B31,2016-07-28 10:39:00,
2016-07-28 06:44:00,70.8,68.0,29.92,NW,310,0.0,0.0,91,1.16,,,2.09,WeatherCatV2.22B31,2016-07-28 10:44:00,
2016-07-28 06:49:00,70.6,67.8,29.91,NW,310,0.0,0.0,91,0.70,,,2.16,WeatherCatV2.22B31,2016-07-28 10:49:00,
2016-07-28 06:54:00,70.6,67.8,29.91,NW,310,0.0,0.0,91,0.34,,,2.21,WeatherCatV2.22B31,2016-07-28 10:54:00,
2016-07-28 06:59:00,70.6,68.2,29.91,NW,310,0.0,0.0,92,0.55,,,2.25,WeatherCatV2.22B31,2016-07-28 10:59:00,
2016-07-28 07:04:00,70.6,68.2,29.91,NW,310,0.0,0.0,92,0.44,,,2.30,WeatherCatV2.22B31,2016-07-28 11:04:00,
2016-07-28 07:09:00,70.6,68.2,29.91,NW,310,0.0,0.0,92,0.22,,,2.32,WeatherCatV2.22B31,2016-07-28 11:09:00,
2016-07-28 07:14:00,70.6,68.2,29.91,NW,310,0.0,0.0,92,0.17,,,2.34,WeatherCatV2.22B31,2016-07-28 11:14:00,
2016-07-28 07:19:00,70.6,68.2,29.92,NW,310,0.0,0.0,92,0.25,,,2.36,WeatherCatV2.22B31,2016-07-28 11:19:00,
2016-07-28 07:24:00,70.6,68.2,29.92,NW,310,0.0,0.0,92,0.14,,,2.37,WeatherCatV2.22B31,2016-07-28 11:24:00,
2016-07-28 07:29:00,70.6,68.2,29.92,NW,310,0.0,0.0,92,0.11,,,2.38,WeatherCatV2.22B31,2016-07-28 11:29:00,
2016-07-28 07:34:00,70.6,68.2,29.92,NW,310,0.0,0.0,92,0.13,,,2.39,WeatherCatV2.22B31,2016-07-28 11:34:00,
2016-07-28 07:39:00,70.6,68.2,29.92,NW,310,0.0,0.0,92,0.11,,,2.40,WeatherCatV2.22B31,2016-07-28 11:39:00,
2016-07-28 07:44:00,70.6,68.2,29.92,NW,310,0.0,0.0,92,0.09,,,2.41,WeatherCatV2.22B31,2016-07-28 11:44:00,
2016-07-28 07:49:00,70.6,68.2,29.92,NW,310,0.0,0.0,92,0.07,,,2.41,WeatherCatV2.22B31,2016-07-28 11:49:00,
2016-07-28 07:54:00,70.6,68.2,29.92,NW,310,0.0,0.0,92,0.05,,,2.42,WeatherCatV2.22B31,2016-07-28 11:54:00,
2016-07-28 07:59:00,70.6,68.2,29.92,NW,310,0.0,0.0,92,0.05,,,2.42,WeatherCatV2.22B31,2016-07-28 11:59:00,
2016-07-28 08:04:00,70.6,68.2,29.92,NW,310,0.0,0.0,92,0.05,,,2.42,WeatherCatV2.22B31,2016-07-28 12:04:00,
2016-07-28 08:09:00,70.6,68.2,29.92,NW,310,0.0,0.0,92,0.04,,,2.43,WeatherCatV2.22B31,2016-07-28 12:09:00,
2016-07-28 08:14:00,70.6,68.2,29.91,NW,310,0.0,0.0,92,0.19,,,2.45,WeatherCatV2.22B31,2016-07-28 12:14:00,
2016-07-28 08:19:00,70.6,68.2,29.91,NW,310,0.0,0.0,92,0.16,,,2.46,WeatherCatV2.22B31,2016-07-28 12:19:00,
2016-07-28 08:25:00,70.6,68.2,29.91,NW,310,0.0,0.0,92,0.07,,,2.46,WeatherCatV2.22B31,2016-07-28 12:25:00,
2016-07-28 08:30:00,70.6,68.2,29.91,NW,310,0.0,0.0,92,0.13,,,2.48,WeatherCatV2.22B31,2016-07-28 12:30:00,
2016-07-28 08:35:00,70.6,68.2,29.91,NW,310,0.0,0.0,92,0.12,,,2.49,WeatherCatV2.22B31,2016-07-28 12:35:00,
2016-07-28 08:40:00,70.6,68.2,29.91,NW,310,0.0,0.0,92,0.11,,,2.50,WeatherCatV2.22B31,2016-07-28 12:40:00,
2016-07-28 08:45:00,70.8,68.3,29.90,NW,310,0.0,0.0,92,0.11,,,2.50,WeatherCatV2.22B31,2016-07-28 12:45:00,
2016-07-28 08:50:00,70.8,68.3,29.90,NW,310,0.0,0.0,92,0.06,,,2.50,WeatherCatV2.22B31,2016-07-28 12:50:00,
2016-07-28 08:55:00,70.8,68.3,29.90,NW,310,0.0,0.0,92,0.04,,,2.50,WeatherCatV2.22B31,2016-07-28 12:55:00,
2016-07-28 09:00:00,70.9,68.4,29.88,NW,310,0.0,0.0,92,0.00,,,2.50,WeatherCatV2.22B31,2016-07-28 13:00:00,
2016-07-28 09:05:00,70.9,68.4,29.88,NW,310,0.0,0.0,92,0.00,,,2.51,WeatherCatV2.22B31,2016-07-28 13:05:00,
2016-07-28 09:10:00,71.1,68.7,29.88,NW,310,0.0,0.0,92,0.00,,,2.51,WeatherCatV2.22B31,2016-07-28 13:10:00,
2016-07-28 09:15:00,71.5,69.1,29.89,NW,310,0.0,0.0,92,0.00,,,2.51,WeatherCatV2.22B31,2016-07-28 13:15:00,
2016-07-28 09:20:00,71.5,69.1,29.89,NW,310,0.0,0.0,92,0.00,,,2.51,WeatherCatV2.22B31,2016-07-28 13:20:00,
2016-07-28 09:25:00,71.5,69.1,29.89,NW,310,0.0,0.0,92,0.00,,,2.51,WeatherCatV2.22B31,2016-07-28 13:25:00,
2016-07-28 09:30:00,71.5,69.1,29.90,NW,310,0.0,0.0,92,0.00,,,2.51,WeatherCatV2.22B31,2016-07-28 13:30:00,
2016-07-28 09:35:00,71.5,69.1,29.90,NW,310,0.0,0.0,92,0.00,,,2.51,WeatherCatV2.22B31,2016-07-28 13:35:00,
2016-07-28 09:40:00,71.5,69.1,29.90,NW,310,0.0,0.0,92,0.00,,,2.51,WeatherCatV2.22B31,2016-07-28 13:40:00,
2016-07-28 09:45:00,71.5,69.1,29.90,NW,310,0.0,0.0,92,0.00,,,2.51,WeatherCatV2.22B31,2016-07-28 13:45:00,
2016-07-28 09:50:00,71.5,69.1,29.90,NW,310,0.0,0.0,92,0.00,,,2.51,WeatherCatV2.22B31,2016-07-28 13:50:00,
2016-07-28 09:55:00,71.6,69.2,29.90,NW,310,0.0,0.0,92,0.00,,,2.51,WeatherCatV2.22B31,2016-07-28 13:55:00,
2016-07-28 10:00:00,71.6,69.2,29.90,NW,310,0.0,0.0,92,0.00,,,2.51,WeatherCatV2.22B31,2016-07-28 14:00:00,
2016-07-28 10:05:00,71.8,69.3,29.90,NW,310,0.0,0.0,92,0.00,,,2.51,WeatherCatV2.22B31,2016-07-28 14:05:00,
2016-07-28 10:10:00,71.8,69.3,29.90,NW,310,0.0,0.0,92,0.00,,,2.51,WeatherCatV2.22B31,2016-07-28 14:10:00,
2016-07-28 10:15:00,71.8,69.3,29.91,NW,310,0.0,0.0,92,0.00,,,2.51,WeatherCatV2.22B31,2016-07-28 14:15:00,
2016-07-28 10:20:00,71.8,69.3,29.91,NW,310,0.0,0.0,92,0.00,,,2.51,WeatherCatV2.22B31,2016-07-28 14:20:00,
2016-07-28 10:25:00,71.8,69.3,29.91,NW,310,0.0,0.0,92,0.00,,,2.51,WeatherCatV2.22B31,2016-07-28 14:25:00,
2016-07-28 10:30:00,71.8,69.3,29.91,NW,310,0.0,0.0,92,0.00,,,2.51,WeatherCatV2.22B31,2016-07-28 14:30:00,
2016-07-28 10:35:00,71.8,69.3,29.91,NW,310,0.0,0.0,92,0.00,,,2.51,WeatherCatV2.22B31,2016-07-28 14:35:00,
2016-07-28 10:40:00,71.8,69.3,29.91,NW,310,0.0,0.0,92,0.00,,,2.51,WeatherCatV2.22B31,2016-07-28 14:40:00,
2016-07-28 10:45:00,72.0,69.5,29.91,NW,310,0.0,0.0,92,0.00,,,2.51,WeatherCatV2.22B31,2016-07-28 14:45:00,
2016-07-28 10:50:00,72.1,69.6,29.91,NW,310,0.0,0.0,92,0.00,,,2.51,WeatherCatV2.22B31,2016-07-28 14:50:00,
2016-07-28 10:55:00,72.1,70.0,29.91,NW,310,0.0,0.0,93,0.00,,,2.51,WeatherCatV2.22B31,2016-07-28 14:55:00,
2016-07-28 11:00:00,72.3,70.2,29.91,NW,310,0.0,0.0,93,0.00,,,2.51,WeatherCatV2.22B31,2016-07-28 15:00:00,
2016-07-28 11:05:00,72.3,70.2,29.91,NW,310,0.0,0.0,93,0.00,,,2.51,WeatherCatV2.22B31,2016-07-28 15:05:00,
2016-07-28 11:10:00,72.5,70.3,29.91,NW,310,0.0,0.0,93,0.00,,,2.51,WeatherCatV2.22B31,2016-07-28 15:10:00,
2016-07-28 11:15:00,72.5,70.3,29.90,NW,310,0.0,0.0,93,0.00,,,2.51,WeatherCatV2.22B31,2016-07-28 15:15:00,
2016-07-28 11:20:00,72.7,70.6,29.90,NW,310,0.0,0.0,93,0.00,,,2.51,WeatherCatV2.22B31,2016-07-28 15:20:00,
2016-07-28 11:25:00,72.8,70.7,29.90,NW,310,0.0,0.0,93,0.00,,,2.51,WeatherCatV2.22B31,2016-07-28 15:25:00,
2016-07-28 11:30:00,72.8,70.7,29.91,NW,310,0.0,0.0,93,0.00,,,2.51,WeatherCatV2.22B31,2016-07-28 15:30:00,
2016-07-28 11:35:00,73.0,70.8,29.91,NW,310,0.0,0.0,93,0.00,,,2.51,WeatherCatV2.22B31,2016-07-28 15:35:00,
2016-07-28 11:40:00,72.8,70.7,29.91,NW,310,0.0,0.0,93,0.00,,,2.51,WeatherCatV2.22B31,2016-07-28 15:40:00,
2016-07-28 11:45:00,72.8,70.7,29.90,NW,310,0.0,0.0,93,0.00,,,2.51,WeatherCatV2.22B31,2016-07-28 15:45:00,
2016-07-28 11:50:00,72.8,70.7,29.90,NW,310,0.0,0.0,93,0.00,,,2.51,WeatherCatV2.22B31,2016-07-28 15:50:00,
2016-07-28 11:55:00,72.8,70.7,29.90,NW,310,0.0,0.0,93,0.00,,,2.51,WeatherCatV2.22B31,2016-07-28 15:55:00,
2016-07-28 12:00:00,73.0,70.8,29.90,NW,310,0.0,0.0,93,0.00,,,2.51,WeatherCatV2.22B31,2016-07-28 16:00:00,
2016-07-28 12:05:00,73.0,70.8,29.90,NW,310,0.0,0.0,93,0.00,,,2.51,WeatherCatV2.22B31,2016-07-28 16:05:00,
2016-07-28 12:10:00,73.2,71.1,29.90,NW,310,0.0,0.0,93,0.00,,,2.51,WeatherCatV2.22B31,2016-07-28 16:10:00,
2016-07-28 12:15:00,73.2,71.1,29.90,NW,310,0.0,0.0,93,0.00,,,2.51,WeatherCatV2.22B31,2016-07-28 16:15:00,
2016-07-28 12:20:00,73.2,71.1,29.90,NW,310,0.0,0.0,93,0.00,,,2.51,WeatherCatV2.22B31,2016-07-28 16:20:00,
2016-07-28 12:25:00,73.2,71.1,29.90,NW,310,0.0,0.0,93,0.00,,,2.51,WeatherCatV2.22B31,2016-07-28 16:25:00,
2016-07-28 12:30:00,73.0,70.8,29.90,NW,310,0.0,0.0,93,0.00,,,2.51,WeatherCatV2.22B31,2016-07-28 16:30:00,
2016-07-28 12:35:00,73.0,70.8,29.90,NW,310,0.0,0.0,93,0.00,,,2.51,WeatherCatV2.22B31,2016-07-28 16:35:00,
2016-07-28 12:40:00,73.2,71.1,29.90,NW,310,0.0,0.0,93,0.00,,,2.51,WeatherCatV2.22B31,2016-07-28 16:40:00,
2016-07-28 12:45:00,73.3,71.2,29.90,NW,310,0.0,0.0,93,0.00,,,2.51,WeatherCatV2.22B31,2016-07-28 16:45:00,
2016-07-28 12:50:00,73.3,71.2,29.90,NW,310,0.0,0.0,93,0.00,,,2.51,WeatherCatV2.22B31,2016-07-28 16:50:00,
2016-07-28 12:55:00,73.5,71.3,29.90,NW,310,0.0,0.0,93,0.00,,,2.51,WeatherCatV2.22B31,2016-07-28 16:55:00,
2016-07-28 13:00:00,73.7,71.5,29.89,NW,310,0.0,0.0,93,0.00,,,2.51,WeatherCatV2.22B31,2016-07-28 17:00:00,
2016-07-28 13:05:00,73.9,71.7,29.89,NW,310,0.0,0.0,93,0.00,,,2.51,WeatherCatV2.22B31,2016-07-28 17:05:00,
2016-07-28 13:10:00,73.9,71.7,29.89,NW,310,0.0,0.0,93,0.00,,,2.51,WeatherCatV2.22B31,2016-07-28 17:10:00,
2016-07-28 13:15:00,73.9,71.7,29.89,NW,310,0.0,0.0,93,0.00,,,2.51,WeatherCatV2.22B31,2016-07-28 17:15:00,
2016-07-28 13:20:00,74.0,71.8,29.89,NW,310,0.0,0.0,93,0.00,,,2.51,WeatherCatV2.22B31,2016-07-28 17:20:00,
2016-07-28 13:25:00,74.0,71.8,29.89,NW,310,0.0,0.0,93,0.00,,,2.51,WeatherCatV2.22B31,2016-07-28 17:25:00,
2016-07-28 13:30:00,73.9,71.7,29.89,NW,310,0.0,0.0,93,0.00,,,2.51,WeatherCatV2.22B31,2016-07-28 17:30:00,
2016-07-28 13:35:00,73.9,71.7,29.89,NW,310,0.0,0.0,93,0.00,,,2.51,WeatherCatV2.22B31,2016-07-28 17:35:00,
2016-07-28 13:40:00,74.0,71.8,29.89,NW,310,0.0,0.0,93,0.00,,,2.51,WeatherCatV2.22B31,2016-07-28 17:40:00,
2016-07-28 13:45:00,74.0,71.8,29.88,NW,310,0.0,0.0,93,0.00,,,2.51,WeatherCatV2.22B31,2016-07-28 17:45:00,
2016-07-28 13:50:00,74.0,71.8,29.88,NW,310,0.0,0.0,93,0.00,,,2.51,WeatherCatV2.22B31,2016-07-28 17:50:00,
2016-07-28 13:55:00,74.0,71.8,29.88,NW,310,0.0,0.0,93,0.00,,,2.51,WeatherCatV2.22B31,2016-07-28 17:55:00,
2016-07-28 14:00:00,73.9,71.4,29.88,NW,310,0.0,0.0,92,0.00,,,2.51,WeatherCatV2.22B31,2016-07-28 18:00:00,
2016-07-28 14:05:00,73.9,71.4,29.88,NW,310,0.0,0.0,92,0.00,,,2.51,WeatherCatV2.22B31,2016-07-28 18:05:00,
2016-07-28 14:10:00,73.9,71.4,29.88,NW,310,0.0,0.0,92,0.00,,,2.51,WeatherCatV2.22B31,2016-07-28 18:10:00,
2016-07-28 14:15:00,73.9,71.4,29.88,NW,310,0.0,0.0,92,0.00,,,2.51,WeatherCatV2.22B31,2016-07-28 18:15:00,
2016-07-28 14:21:00,74.0,71.5,29.88,NW,310,0.0,0.0,92,0.00,,,2.51,WeatherCatV2.22B31,2016-07-28 18:21:00,
2016-07-28 14:26:00,74.0,71.5,29.88,NW,310,0.0,0.0,92,0.00,,,2.51,WeatherCatV2.22B31,2016-07-28 18:26:00,
2016-07-28 14:31:00,74.2,71.7,29.88,NW,310,0.0,0.0,92,0.00,,,2.51,WeatherCatV2.22B31,2016-07-28 18:31:00,
2016-07-28 14:36:00,74.2,71.7,29.88,NW,310,0.0,0.0,92,0.00,,,2.51,WeatherCatV2.22B31,2016-07-28 18:36:00,
2016-07-28 14:41:00,74.4,71.9,29.88,NW,310,0.0,1.0,92,0.00,,,2.51,WeatherCatV2.22B31,2016-07-28 18:41:00,
2016-07-28 14:46:00,74.7,72.2,29.88,NW,310,0.0,0.0,92,0.00,,,2.51,WeatherCatV2.22B31,2016-07-28 18:46:00,
2016-07-28 14:51:00,74.7,72.2,29.88,NW,310,0.0,0.0,92,0.00,,,2.51,WeatherCatV2.22B31,2016-07-28 18:51:00,
2016-07-28 14:56:00,74.7,72.2,29.88,NW,310,0.0,0.0,92,0.00,,,2.51,WeatherCatV2.22B31,2016-07-28 18:56:00,
2016-07-28 15:01:00,74.7,71.9,29.87,NW,310,0.0,0.0,91,0.00,,,2.51,WeatherCatV2.22B31,2016-07-28 19:01:00,
2016-07-28 15:06:00,74.7,71.9,29.87,NW,310,0.0,0.0,91,0.00,,,2.51,WeatherCatV2.22B31,2016-07-28 19:06:00,
2016-07-28 15:11:00,74.7,71.6,29.87,NW,310,0.0,0.0,90,0.00,,,2.51,WeatherCatV2.22B31,2016-07-28 19:11:00,
2016-07-28 15:16:00,75.1,72.0,29.87,NW,310,0.0,0.0,90,0.00,,,2.51,WeatherCatV2.22B31,2016-07-28 19:16:00,
2016-07-28 15:21:00,75.3,71.8,29.87,NW,310,0.0,0.0,89,0.00,,,2.51,WeatherCatV2.22B31,2016-07-28 19:21:00,
2016-07-28 15:26:00,75.3,71.8,29.87,NW,310,0.0,0.0,89,0.00,,,2.51,WeatherCatV2.22B31,2016-07-28 19:26:00,
2016-07-28 15:31:00,75.3,71.5,29.87,NW,310,0.0,0.0,88,0.00,,,2.51,WeatherCatV2.22B31,2016-07-28 19:31:00,
2016-07-28 15:36:00,75.6,71.8,29.87,NW,310,0.0,0.0,88,0.00,,,2.51,WeatherCatV2.22B31,2016-07-28 19:36:00,
2016-07-28 15:41:00,75.8,71.6,29.87,NW,310,0.0,0.0,87,0.00,,,2.51,WeatherCatV2.22B31,2016-07-28 19:41:00,
2016-07-28 15:46:00,76.0,71.5,29.86,NW,310,0.0,0.0,86,0.00,,,2.51,WeatherCatV2.22B31,2016-07-28 19:46:00,
2016-07-28 15:51:00,76.5,72.3,29.86,NW,310,0.0,0.0,87,0.00,,,2.51,WeatherCatV2.22B31,2016-07-28 19:51:00,
2016-07-28 15:56:00,76.7,72.2,29.86,NW,310,0.0,0.0,86,0.00,,,2.51,WeatherCatV2.22B31,2016-07-28 19:56:00,
2016-07-28 16:01:00,76.8,71.9,29.86,NW,310,0.0,0.0,85,0.00,,,2.51,WeatherCatV2.22B31,2016-07-28 20:01:00,
2016-07-28 16:06:00,77.2,72.0,29.86,NW,310,0.0,0.0,84,0.00,,,2.51,WeatherCatV2.22B31,2016-07-28 20:06:00,
2016-07-28 16:11:00,77.4,71.8,29.86,NW,310,0.0,0.0,83,0.00,,,2.51,WeatherCatV2.22B31,2016-07-28 20:11:00,
2016-07-28 16:16:00,77.6,72.0,29.86,NW,310,0.0,0.0,83,0.00,,,2.51,WeatherCatV2.22B31,2016-07-28 20:16:00,
2016-07-28 16:21:00,77.9,72.3,29.86,NW,310,0.0,0.0,83,0.00,,,2.51,WeatherCatV2.22B31,2016-07-28 20:21:00,
2016-07-28 16:26:00,77.9,71.9,29.86,NW,310,0.0,0.0,82,0.00,,,2.51,WeatherCatV2.22B31,2016-07-28 20:26:00,
2016-07-28 16:31:00,77.9,70.1,29.86,NW,310,0.0,0.0,77,0.00,,,2.51,WeatherCatV2.22B31,2016-07-28 20:31:00,
2016-07-28 16:36:00,78.3,71.6,29.86,NW,310,0.0,0.0,80,0.00,,,2.51,WeatherCatV2.22B31,2016-07-28 20:36:00,
2016-07-28 16:41:00,78.3,70.5,29.86,NW,310,0.0,1.0,77,0.00,,,2.51,WeatherCatV2.22B31,2016-07-28 20:41:00,
2016-07-28 16:46:00,78.5,71.1,29.85,NW,310,0.0,0.0,78,0.00,,,2.51,WeatherCatV2.22B31,2016-07-28 20:46:00,
2016-07-28 16:51:00,78.6,70.8,29.85,NW,310,0.0,0.0,77,0.00,,,2.51,WeatherCatV2.22B31,2016-07-28 20:51:00,
2016-07-28 16:56:00,78.8,71.7,29.85,NW,310,0.0,0.0,79,0.00,,,2.51,WeatherCatV2.22B31,2016-07-28 20:56:00,
2016-07-28 17:01:00,78.8,71.3,29.85,NW,310,0.0,0.0,78,0.00,,,2.51,WeatherCatV2.22B31,2016-07-28 21:01:00,
2016-07-28 17:06:00,78.8,71.3,29.85,NW,310,0.0,0.0,78,0.00,,,2.51,WeatherCatV2.22B31,2016-07-28 21:06:00,
2016-07-28 17:11:00,78.8,71.7,29.85,NW,310,0.0,0.0,79,0.00,,,2.51,WeatherCatV2.22B31,2016-07-28 21:11:00,
2016-07-28 17:16:00,79.0,71.9,29.85,NW,310,0.0,0.0,79,0.00,,,2.51,WeatherCatV2.22B31,2016-07-28 21:16:00,
2016-07-28 17:21:00,79.0,71.2,29.85,NW,310,0.0,0.0,77,0.00,,,2.51,WeatherCatV2.22B31,2016-07-28 21:21:00,
2016-07-28 17:26:00,79.0,71.2,29.85,NW,310,0.0,0.0,77,0.00,,,2.51,WeatherCatV2.22B31,2016-07-28 21:26:00,
2016-07-28 17:31:00,79.0,71.5,29.85,NW,310,0.0,0.0,78,0.00,,,2.51,WeatherCatV2.22B31,2016-07-28 21:31:00,
2016-07-28 17:36:00,78.8,71.3,29.85,NW,310,0.0,0.0,78,0.00,,,2.51,WeatherCatV2.22B31,2016-07-28 21:36:00,
2016-07-28 17:41:00,78.8,71.3,29.85,NW,310,0.0,0.0,78,0.00,,,2.51,WeatherCatV2.22B31,2016-07-28 21:41:00,
2016-07-28 17:46:00,78.8,71.7,29.85,NW,310,0.0,0.0,79,0.00,,,2.51,WeatherCatV2.22B31,2016-07-28 21:46:00,
2016-07-28 17:51:00,78.6,71.9,29.85,NW,310,0.0,0.0,80,0.00,,,2.51,WeatherCatV2.22B31,2016-07-28 21:51:00,
2016-07-28 17:56:00,78.5,71.4,29.85,NW,310,0.0,0.0,79,0.00,,,2.51,WeatherCatV2.22B31,2016-07-28 21:56:00,
2016-07-28 18:01:00,78.1,70.7,29.86,NW,310,0.0,0.0,78,0.00,,,2.51,WeatherCatV2.22B31,2016-07-28 22:01:00,
2016-07-28 18:06:00,78.1,71.0,29.86,NW,310,0.0,0.0,79,0.00,,,2.51,WeatherCatV2.22B31,2016-07-28 22:06:00,
2016-07-28 18:11:00,78.1,71.0,29.86,NW,310,0.0,0.0,79,0.00,,,2.51,WeatherCatV2.22B31,2016-07-28 22:11:00,
2016-07-28 18:16:00,78.3,71.6,29.86,NW,310,0.0,0.0,80,0.00,,,2.51,WeatherCatV2.22B31,2016-07-28 22:16:00,
2016-07-28 18:21:00,78.5,71.1,29.86,NW,310,0.0,0.0,78,0.00,,,2.51,WeatherCatV2.22B31,2016-07-28 22:21:00,
2016-07-28 18:26:00,79.0,71.9,29.86,NW,310,0.0,0.0,79,0.00,,,2.51,WeatherCatV2.22B31,2016-07-28 22:26:00,
2016-07-28 18:31:00,79.2,72.1,29.87,NW,310,0.0,0.0,79,0.00,,,2.51,WeatherCatV2.22B31,2016-07-28 22:31:00,
2016-07-28 18:41:00,79.0,71.2,29.87,NW,310,0.0,0.0,77,0.00,,,2.51,WeatherCatV2.22B31,2016-07-28 22:41:00,
2016-07-28 18:46:00,79.0,71.5,29.86,NW,310,0.0,0.0,78,0.00,,,2.51,WeatherCatV2.22B31,2016-07-28 22:46:00,
2016-07-28 18:51:00,78.8,70.6,29.86,NW,310,0.0,0.0,76,0.00,,,2.51,WeatherCatV2.22B31,2016-07-28 22:51:00,
2016-07-28 18:56:00,78.8,71.0,29.86,NW,310,0.0,0.0,77,0.00,,,2.51,WeatherCatV2.22B31,2016-07-28 22:56:00,
2016-07-28 19:01:00,78.6,70.8,29.85,NW,310,0.0,0.0,77,0.00,,,2.51,WeatherCatV2.22B31,2016-07-28 23:01:00,
2016-07-28 19:06:00,78.6,70.8,29.85,NW,310,0.0,0.0,77,0.00,,,2.51,WeatherCatV2.22B31,2016-07-28 23:06:00,
2016-07-28 19:11:00,78.6,71.2,29.85,NW,310,0.0,0.0,78,0.00,,,2.51,WeatherCatV2.22B31,2016-07-28 23:11:00,
2016-07-28 19:16:00,78.6,71.2,29.86,NW,310,0.0,0.0,78,0.00,,,2.51,WeatherCatV2.22B31,2016-07-28 23:16:00,
2016-07-28 19:21:00,78.6,71.2,29.86,NW,310,0.0,0.0,78,0.00,,,2.51,WeatherCatV2.22B31,2016-07-28 23:21:00,
2016-07-28 19:26:00,78.6,71.2,29.86,NW,310,0.0,0.0,78,0.00,,,2.51,WeatherCatV2.22B31,2016-07-28 23:26:00,
2016-07-28 19:31:00,78.5,71.1,29.86,NW,310,0.0,0.0,78,0.00,,,2.51,WeatherCatV2.22B31,2016-07-28 23:31:00,
2016-07-28 19:36:00,78.5,71.1,29.86,NW,310,0.0,0.0,78,0.00,,,2.51,WeatherCatV2.22B31,2016-07-28 23:36:00,
2016-07-28 19:41:00,78.3,70.9,29.86,NW,310,0.0,0.0,78,0.00,,,2.51,WeatherCatV2.22B31,2016-07-28 23:41:00,
2016-07-28 19:46:00,78.3,70.9,29.87,NW,310,0.0,0.0,78,0.00,,,2.51,WeatherCatV2.22B31,2016-07-28 23:46:00,
2016-07-28 19:51:00,78.3,71.6,29.87,NW,310,0.0,0.0,80,0.00,,,2.51,WeatherCatV2.22B31,2016-07-28 23:51:00,
2016-07-28 19:56:00,78.1,71.4,29.87,NW,310,0.0,0.0,80,0.00,,,2.51,WeatherCatV2.22B31,2016-07-28 23:56:00,
2016-07-28 20:01:00,77.9,71.2,29.88,NW,310,0.0,0.0,80,0.00,,,2.51,WeatherCatV2.22B31,2016-07-29 00:01:00,
2016-07-28 20:06:00,77.6,70.9,29.88,NW,310,0.0,0.0,80,0.00,,,2.51,WeatherCatV2.22B31,2016-07-29 00:06:00,
2016-07-28 20:11:00,77.4,70.7,29.88,NW,310,0.0,0.0,80,0.00,,,2.51,WeatherCatV2.22B31,2016-07-29 00:11:00,
2016-07-28 20:16:00,77.2,70.9,29.88,NW,310,0.0,0.0,81,0.00,,,2.51,WeatherCatV2.22B31,2016-07-29 00:16:00,
2016-07-28 20:21:00,76.8,70.2,29.88,NW,310,0.0,0.0,80,0.00,,,2.51,WeatherCatV2.22B31,2016-07-29 00:21:00,
2016-07-28 20:26:00,76.8,70.9,29.88,NW,310,0.0,0.0,82,0.00,,,2.51,WeatherCatV2.22B31,2016-07-29 00:26:00,
2016-07-28 20:31:00,76.7,71.1,29.88,NW,310,0.0,0.0,83,0.00,,,2.51,WeatherCatV2.22B31,2016-07-29 00:31:00,
2016-07-28 20:36:00,76.7,71.1,29.88,NW,310,0.0,0.0,83,0.00,,,2.51,WeatherCatV2.22B31,2016-07-29 00:36:00,
2016-07-28 20:41:00,76.5,70.9,29.88,NW,310,0.0,0.0,83,0.00,,,2.51,WeatherCatV2.22B31,2016-07-29 00:41:00,